CYP722 LCLK-LGAV

Flight info

Callsign CYP722
Flight time 1h 25m
Altitude 36000
Route PHA M31 GENOS DCT PEDER DCT EVENO UM601 RDS UL995 VARIX
Aircraft A320/M-SDE3FGHIRWY/LB1

Departure

Time 2026-05-04 17:24
Airport Larnaca International Airport (LCLK)

Arrival

Time 2026-05-04 18:49
Airport Athens Eleftherios Venizelos International Airport (LGAV)
Time Latitude Longitude Altitude Speed Heading
2026-05-04 16:47 34.86879 33.60958 21 ft 0 kts 45°
2026-05-04 16:48 34.86879 33.60957 20 ft 0 kts 45°
2026-05-04 17:05 34.86858 33.60929 20 ft 4 kts 54°
2026-05-04 17:06 34.86835 33.60871 24 ft 4 kts 85°
2026-05-04 17:06 34.86839 33.60842 23 ft 3 kts 130°
2026-05-04 17:07 34.86841 33.60838 23 ft 0 kts 135°
2026-05-04 17:08 34.86826 33.60855 23 ft 11 kts 135°
2026-05-04 17:08 34.86770 33.60921 20 ft 0 kts 134°
2026-05-04 17:11 34.86769 33.60923 20 ft 3 kts 134°
2026-05-04 17:11 34.86737 33.60963 22 ft 15 kts 135°
2026-05-04 17:11 34.86710 33.60996 20 ft 0 kts 135°
2026-05-04 17:13 34.86657 33.61154 22 ft 8 kts 46°
2026-05-04 17:14 34.86783 33.61310 18 ft 10 kts 43°
2026-05-04 17:14 34.86828 33.61362 18 ft 8 kts 44°
2026-05-04 17:14 34.86888 33.61436 18 ft 5 kts 45°
2026-05-04 17:15 34.86902 33.61453 18 ft 4 kts 45°
2026-05-04 17:15 34.87001 33.61574 19 ft 8 kts 45°
2026-05-04 17:16 34.87085 33.61678 22 ft 9 kts 45°
2026-05-04 17:16 34.87190 33.61805 21 ft 7 kts 45°
2026-05-04 17:17 34.87222 33.61844 21 ft 5 kts 45°
2026-05-04 17:17 34.87413 33.62079 18 ft 14 kts 45°
2026-05-04 17:18 34.87477 33.62158 19 ft 12 kts 46°
2026-05-04 17:18 34.87598 33.62306 17 ft 12 kts 45°
2026-05-04 17:19 34.87690 33.62418 19 ft 7 kts 45°
2026-05-04 17:19 34.87808 33.62562 19 ft 13 kts 45°
2026-05-04 17:20 34.87904 33.62680 22 ft 8 kts 45°
2026-05-04 17:20 34.88047 33.62851 20 ft 20 kts 44°
2026-05-04 17:20 34.88145 33.62973 19 ft 20 kts 44°
2026-05-04 17:21 34.88295 33.63153 18 ft 13 kts 49°
2026-05-04 17:21 34.88415 33.63299 17 ft 11 kts 44°
2026-05-04 17:22 34.88442 33.63367 19 ft 7 kts 95°
2026-05-04 17:22 34.88422 33.63413 20 ft 6 kts 124°
2026-05-04 17:23 34.88265 33.63478 17 ft 16 kts 225°
2026-05-04 17:23 34.88113 33.63299 18 ft 62 kts 224°
2026-05-04 17:23 34.86943 33.61850 307 ft 146 kts 226°
2026-05-04 17:24 34.86226 33.60956 947 ft 149 kts 230°
2026-05-04 17:24 34.84059 33.57875 2293 ft 185 kts 253°
2026-05-04 17:25 34.83870 33.56245 2601 ft 207 kts 266°
2026-05-04 17:25 34.83448 33.52381 3636 ft 247 kts 263°
2026-05-04 17:26 34.82920 33.48182 5460 ft 254 kts 263°
2026-05-04 17:26 34.82136 33.41662 8111 ft 264 kts 263°
2026-05-04 17:27 34.81619 33.37222 9962 ft 266 kts 263°
2026-05-04 17:27 34.81075 33.32514 10684 ft 306 kts 263°
2026-05-04 17:28 34.80438 33.27115 11620 ft 331 kts 263°
2026-05-04 17:29 34.79433 33.18667 13823 ft 341 kts 263°
2026-05-04 17:29 34.78404 33.09993 15806 ft 350 kts 263°
2026-05-04 17:30 34.77345 33.01107 17719 ft 358 kts 264°
2026-05-04 17:31 34.76618 32.95062 18892 ft 364 kts 263°
2026-05-04 17:31 34.75501 32.85787 20411 ft 376 kts 263°
2026-05-04 17:32 34.74724 32.79436 21414 ft 382 kts 263°
2026-05-04 17:33 34.73956 32.69723 22846 ft 390 kts 279°
2026-05-04 17:33 34.74653 32.66528 23309 ft 393 kts 286°
2026-05-04 17:34 34.77049 32.56896 24413 ft 401 kts 286°
2026-05-04 17:34 34.77858 32.53641 24778 ft 402 kts 285°
2026-05-04 17:35 34.80283 32.43798 25871 ft 408 kts 285°
2026-05-04 17:35 34.81907 32.37158 26575 ft 411 kts 285°
2026-05-04 17:35 34.82726 32.33817 26903 ft 413 kts 285°
2026-05-04 17:36 34.83552 32.30458 27195 ft 415 kts 285°
2026-05-04 17:36 34.84383 32.27079 27485 ft 417 kts 285°
2026-05-04 17:36 34.85214 32.23684 27774 ft 419 kts 285°
2026-05-04 17:36 34.86048 32.20275 28065 ft 421 kts 285°
2026-05-04 17:37 34.86880 32.16858 28340 ft 423 kts 285°
2026-05-04 17:37 34.87715 32.13419 28609 ft 424 kts 285°
2026-05-04 17:37 34.88551 32.09967 28869 ft 426 kts 285°
2026-05-04 17:37 34.89389 32.06503 29111 ft 427 kts 285°
2026-05-04 17:38 34.90230 32.03029 29401 ft 428 kts 285°
2026-05-04 17:38 34.91069 31.99557 29709 ft 427 kts 285°
2026-05-04 17:38 34.91906 31.96086 30047 ft 427 kts 285°
2026-05-04 17:38 34.92742 31.92619 30327 ft 426 kts 285°
2026-05-04 17:39 34.94410 31.85718 30921 ft 423 kts 285°
2026-05-04 17:39 34.95240 31.82277 31227 ft 422 kts 285°
2026-05-04 17:39 34.96062 31.78849 31530 ft 421 kts 285°
2026-05-04 17:40 34.96880 31.75429 31789 ft 421 kts 285°
2026-05-04 17:40 34.97699 31.72005 32071 ft 420 kts 285°
2026-05-04 17:40 34.98517 31.68586 32372 ft 419 kts 285°
2026-05-04 17:40 34.99334 31.65178 32678 ft 418 kts 285°
2026-05-04 17:41 35.00148 31.61779 32988 ft 417 kts 285°
2026-05-04 17:41 35.00955 31.58391 33298 ft 415 kts 285°
2026-05-04 17:41 35.01756 31.55016 33607 ft 414 kts 285°
2026-05-04 17:41 35.02555 31.51639 33916 ft 413 kts 285°
2026-05-04 17:42 35.03349 31.48276 34134 ft 414 kts 285°
2026-05-04 17:42 35.04147 31.44900 34334 ft 414 kts 285°
2026-05-04 17:42 35.04945 31.41524 34553 ft 414 kts 285°
2026-05-04 17:42 35.05749 31.38146 34784 ft 414 kts 287°
2026-05-04 17:43 35.06959 31.34960 34992 ft 416 kts 301°
2026-05-04 17:43 35.08620 31.32056 35190 ft 417 kts 303°
2026-05-04 17:43 35.10306 31.29169 35385 ft 417 kts 303°
2026-05-04 17:43 35.11998 31.26287 35584 ft 417 kts 303°
2026-05-04 17:44 35.13691 31.23405 35788 ft 417 kts 303°
2026-05-04 17:44 35.15385 31.20517 35898 ft 419 kts 303°
2026-05-04 17:44 35.18787 31.14707 35917 ft 421 kts 303°
2026-05-04 17:45 35.22179 31.08886 35917 ft 421 kts 303°
2026-05-04 17:45 35.25571 31.03052 35912 ft 421 kts 303°
2026-05-04 17:46 35.28962 30.97216 35912 ft 421 kts 303°
2026-05-04 17:46 35.32196 30.91582 35926 ft 421 kts 303°
2026-05-04 17:47 35.35518 30.85677 35909 ft 421 kts 303°
2026-05-04 17:47 35.38842 30.79763 35907 ft 422 kts 303°
2026-05-04 17:48 35.42186 30.73828 35907 ft 424 kts 303°
2026-05-04 17:48 35.45533 30.67878 35906 ft 424 kts 303°
2026-05-04 17:49 35.48880 30.61921 35906 ft 424 kts 303°
2026-05-04 17:49 35.52225 30.55958 35908 ft 424 kts 303°
2026-05-04 17:50 35.55572 30.49990 35913 ft 424 kts 303°
2026-05-04 17:50 35.58911 30.44019 35916 ft 424 kts 303°
2026-05-04 17:51 35.62250 30.38034 35912 ft 425 kts 303°
2026-05-04 17:51 35.65594 30.32043 35909 ft 425 kts 303°
2026-05-04 17:52 35.68928 30.26038 35908 ft 425 kts 303°
2026-05-04 17:52 35.72262 30.20026 35911 ft 425 kts 303°
2026-05-04 17:53 35.75595 30.14008 35910 ft 425 kts 303°
2026-05-04 17:53 35.78931 30.07994 35909 ft 425 kts 303°
2026-05-04 17:54 35.82247 30.01961 35918 ft 426 kts 301°
2026-05-04 17:54 35.84624 29.95299 35903 ft 426 kts 289°
2026-05-04 17:55 35.86507 29.88356 35896 ft 428 kts 289°
2026-05-04 17:55 35.88394 29.81401 35902 ft 429 kts 289°
2026-05-04 17:56 35.90277 29.74416 35905 ft 429 kts 289°
2026-05-04 17:56 35.92166 29.67422 35918 ft 430 kts 289°
2026-05-04 17:57 35.94044 29.60419 35923 ft 430 kts 288°
2026-05-04 17:57 35.95921 29.53411 35925 ft 430 kts 289°
2026-05-04 17:58 35.97490 29.47588 35950 ft 430 kts 289°
2026-05-04 17:58 35.99677 29.39459 35957 ft 429 kts 289°
2026-05-04 17:59 36.01553 29.32478 35970 ft 428 kts 289°
2026-05-04 18:00 36.04049 29.23154 35970 ft 427 kts 289°
2026-05-04 18:00 36.05910 29.16163 35961 ft 428 kts 289°
2026-05-04 18:01 36.07766 29.09185 35978 ft 428 kts 289°
2026-05-04 18:01 36.09600 29.02243 35979 ft 428 kts 289°
2026-05-04 18:02 36.12362 28.91745 35965 ft 429 kts 289°
2026-05-04 18:02 36.14209 28.84733 35980 ft 429 kts 289°
2026-05-04 18:03 36.16051 28.77737 35999 ft 425 kts 289°
2026-05-04 18:03 36.17859 28.70833 35988 ft 420 kts 289°
2026-05-04 18:04 36.19657 28.63948 35991 ft 420 kts 289°
2026-05-04 18:05 36.22340 28.53634 36000 ft 418 kts 289°
2026-05-04 18:05 36.24119 28.46753 36002 ft 420 kts 289°
2026-05-04 18:06 36.26787 28.36407 36006 ft 421 kts 289°
2026-05-04 18:06 36.28559 28.29502 36024 ft 420 kts 289°
2026-05-04 18:07 36.30322 28.22604 36027 ft 419 kts 289°
2026-05-04 18:07 36.32072 28.15723 36042 ft 418 kts 289°
2026-05-04 18:08 36.33821 28.08858 36023 ft 417 kts 291°
2026-05-04 18:08 36.36121 28.02274 36010 ft 415 kts 296°
2026-05-04 18:09 36.40832 27.89196 36022 ft 415 kts 296°
2026-05-04 18:10 36.43169 27.82651 36030 ft 415 kts 296°
2026-05-04 18:10 36.45498 27.76105 36038 ft 414 kts 296°
2026-05-04 18:11 36.47827 27.69554 36047 ft 414 kts 296°
2026-05-04 18:11 36.50156 27.63002 36053 ft 414 kts 296°
2026-05-04 18:12 36.52481 27.56449 36055 ft 414 kts 296°
2026-05-04 18:12 36.54799 27.49890 36060 ft 414 kts 295°
2026-05-04 18:13 36.57113 27.43326 36061 ft 414 kts 296°
2026-05-04 18:14 36.60581 27.33482 36067 ft 414 kts 296°
2026-05-04 18:14 36.62886 27.26926 36069 ft 414 kts 296°
2026-05-04 18:15 36.67485 27.13792 36066 ft 413 kts 296°
2026-05-04 18:16 36.69770 27.07225 36069 ft 413 kts 296°
2026-05-04 18:16 36.72052 27.00663 36073 ft 412 kts 296°
2026-05-04 18:17 36.75462 26.90830 36075 ft 412 kts 296°
2026-05-04 18:18 36.78844 26.81029 36070 ft 411 kts 296°
2026-05-04 18:18 36.81106 26.74475 36086 ft 411 kts 296°
2026-05-04 18:19 36.84479 26.64649 36098 ft 411 kts 296°
2026-05-04 18:19 36.86735 26.58067 36103 ft 410 kts 296°
2026-05-04 18:20 36.88939 26.51651 36095 ft 410 kts 296°
2026-05-04 18:20 36.91168 26.45123 36104 ft 410 kts 295°
2026-05-04 18:21 36.93389 26.38563 36104 ft 410 kts 295°
2026-05-04 18:21 36.95614 26.32006 36110 ft 410 kts 296°
2026-05-04 18:22 36.97836 26.25450 36095 ft 409 kts 296°
2026-05-04 18:22 37.00059 26.18895 36103 ft 409 kts 296°
2026-05-04 18:23 37.02285 26.12344 36113 ft 409 kts 296°
2026-05-04 18:23 37.04464 26.05900 36097 ft 396 kts 296°
2026-05-04 18:24 37.06640 25.99443 36110 ft 407 kts 296°
2026-05-04 18:24 37.08856 25.92887 36105 ft 410 kts 296°
2026-05-04 18:25 37.11060 25.86353 36117 ft 410 kts 296°
2026-05-04 18:25 37.13269 25.79770 36116 ft 406 kts 295°
2026-05-04 18:26 37.15428 25.73306 36122 ft 400 kts 295°
2026-05-04 18:26 37.17571 25.66886 36120 ft 399 kts 296°
2026-05-04 18:27 37.19712 25.60467 36104 ft 399 kts 296°
2026-05-04 18:27 37.21849 25.54050 36111 ft 399 kts 296°
2026-05-04 18:28 37.23969 25.47623 36115 ft 398 kts 295°
2026-05-04 18:28 37.26038 25.41178 36114 ft 398 kts 295°
2026-05-04 18:29 37.28073 25.34711 36112 ft 399 kts 294°
2026-05-04 18:29 37.29885 25.28127 36121 ft 400 kts 291°
2026-05-04 18:30 37.32460 25.18168 36133 ft 399 kts 291°
2026-05-04 18:30 37.33344 25.14824 35421 ft 410 kts 292°
2026-05-04 18:31 37.34254 25.11428 34378 ft 420 kts 292°
2026-05-04 18:31 37.35199 25.07911 33205 ft 431 kts 292°
2026-05-04 18:31 37.36159 25.04323 32233 ft 434 kts 291°
2026-05-04 18:31 37.37126 25.00686 31203 ft 442 kts 291°
2026-05-04 18:32 37.38107 24.96991 30093 ft 449 kts 290°
2026-05-04 18:32 37.39103 24.93242 28846 ft 456 kts 290°
2026-05-04 18:32 37.40112 24.89443 27637 ft 459 kts 290°
2026-05-04 18:32 37.41114 24.85660 26553 ft 453 kts 290°
2026-05-04 18:33 37.42085 24.81974 25888 ft 434 kts 290°
2026-05-04 18:33 37.43043 24.78395 24805 ft 431 kts 291°
2026-05-04 18:33 37.44020 24.74862 23743 ft 423 kts 291°
2026-05-04 18:33 37.44992 24.71419 22543 ft 417 kts 292°
2026-05-04 18:34 37.45953 24.68026 21398 ft 409 kts 292°
2026-05-04 18:34 37.46896 24.64678 20298 ft 402 kts 292°
2026-05-04 18:34 37.47815 24.61383 19276 ft 396 kts 292°
2026-05-04 18:34 37.48713 24.58135 18265 ft 390 kts 292°
2026-05-04 18:35 37.49592 24.54946 17311 ft 383 kts 292°
2026-05-04 18:35 37.50461 24.51788 16790 ft 379 kts 292°
2026-05-04 18:35 37.51318 24.48672 16293 ft 375 kts 292°
2026-05-04 18:35 37.52168 24.45583 15770 ft 371 kts 292°
2026-05-04 18:36 37.53012 24.42521 15249 ft 368 kts 292°
2026-05-04 18:36 37.53847 24.39486 14712 ft 366 kts 292°
2026-05-04 18:36 37.54678 24.36464 14164 ft 364 kts 292°
2026-05-04 18:36 37.55504 24.33449 13553 ft 363 kts 292°
2026-05-04 18:37 37.56325 24.30445 12979 ft 361 kts 292°
2026-05-04 18:37 37.57136 24.27468 12380 ft 358 kts 292°
2026-05-04 18:37 37.57942 24.24504 11783 ft 356 kts 292°
2026-05-04 18:37 37.58743 24.21569 11179 ft 353 kts 292°
2026-05-04 18:38 37.59520 24.18716 10912 ft 330 kts 292°
2026-05-04 18:38 37.60228 24.16095 10781 ft 302 kts 292°
2026-05-04 18:38 37.60883 24.13661 10467 ft 286 kts 292°
2026-05-04 18:38 37.61519 24.11312 10234 ft 281 kts 292°
2026-05-04 18:39 37.62149 24.08996 10037 ft 278 kts 292°
2026-05-04 18:39 37.62777 24.06702 9891 ft 276 kts 292°
2026-05-04 18:39 37.63406 24.04406 9752 ft 277 kts 292°
2026-05-04 18:39 37.64035 24.02109 9623 ft 277 kts 292°
2026-05-04 18:40 37.64659 23.99808 9473 ft 277 kts 292°
2026-05-04 18:40 37.65273 23.97523 9032 ft 274 kts 292°
2026-05-04 18:40 37.65882 23.95254 8564 ft 271 kts 292°
2026-05-04 18:40 37.66487 23.93007 8101 ft 268 kts 293°
2026-05-04 18:41 37.67077 23.90815 7656 ft 266 kts 293°
2026-05-04 18:41 37.67671 23.88611 7208 ft 264 kts 293°
2026-05-04 18:41 37.68263 23.86411 6775 ft 265 kts 293°
2026-05-04 18:41 37.68847 23.84233 6276 ft 258 kts 293°
2026-05-04 18:42 37.69422 23.82088 5484 ft 259 kts 293°
2026-05-04 18:42 37.70122 23.80035 4844 ft 249 kts 310°
2026-05-04 18:42 37.71391 23.78785 4665 ft 220 kts 341°
2026-05-04 18:42 37.72821 23.78434 4458 ft 205 kts 354°
2026-05-04 18:43 37.74226 23.78284 4259 ft 199 kts 355°
2026-05-04 18:43 37.75581 23.78165 4131 ft 191 kts 355°
2026-05-04 18:43 37.76879 23.78135 3993 ft 184 kts
2026-05-04 18:43 37.78072 23.78607 3883 ft 176 kts 25°
2026-05-04 18:44 37.79048 23.79473 3761 ft 167 kts 33°
2026-05-04 18:44 37.79355 23.79768 3708 ft 164 kts 33°
2026-05-04 18:44 37.80845 23.81173 3236 ft 165 kts 33°
2026-05-04 18:44 37.81468 23.81759 3027 ft 166 kts 33°
2026-05-04 18:45 37.82389 23.82630 2772 ft 164 kts 33°
2026-05-04 18:45 37.83290 23.83483 2534 ft 160 kts 34°
2026-05-04 18:45 37.84173 23.84319 2339 ft 154 kts 34°
2026-05-04 18:45 37.84990 23.85094 2117 ft 142 kts 35°
2026-05-04 18:46 37.85770 23.85832 1919 ft 138 kts 35°
2026-05-04 18:46 37.86536 23.86558 1739 ft 137 kts 36°
2026-05-04 18:46 37.87299 23.87278 1533 ft 136 kts 35°
2026-05-04 18:46 37.88058 23.87989 1379 ft 136 kts 36°
2026-05-04 18:47 37.88820 23.88704 1244 ft 137 kts 37°
2026-05-04 18:47 37.89574 23.89437 1058 ft 136 kts 37°
2026-05-04 18:47 37.90329 23.90167 887 ft 137 kts 36°
2026-05-04 18:47 37.91095 23.90879 657 ft 136 kts 37°
2026-05-04 18:48 37.91849 23.91601 453 ft 136 kts 36°
2026-05-04 18:48 37.92601 23.92309 311 ft 131 kts 36°
2026-05-04 18:48 37.93247 23.92931 293 ft 102 kts 38°
2026-05-04 18:48 37.93679 23.93345 293 ft 52 kts 37°
2026-05-04 18:49 37.93844 23.93512 296 ft 25 kts 47°
2026-05-04 18:49 37.93931 23.93697 297 ft 22 kts 70°
2026-05-04 18:49 37.93970 23.93809 299 ft 11 kts 66°
2026-05-04 18:49 37.93997 23.93886 301 ft 8 kts 66°
2026-05-04 18:50 37.94004 23.93907 302 ft 0 kts 66°
2026-05-04 18:50 37.94005 23.93910 302 ft 4 kts 66°
2026-05-04 18:51 37.94096 23.94013 302 ft 23 kts 26°
2026-05-04 18:51 37.94226 23.94134 302 ft 24 kts 42°
2026-05-04 18:51 37.94361 23.94270 302 ft 25 kts 38°
2026-05-04 18:51 37.94503 23.94404 304 ft 26 kts 37°
2026-05-04 18:52 37.94641 23.94536 305 ft 17 kts 37°
2026-05-04 18:52 37.94657 23.94551 302 ft 0 kts 37°
2026-05-04 18:52 37.94663 23.94557 302 ft 7 kts 37°
2026-05-04 18:52 37.94663 23.94662 304 ft 13 kts 126°
2026-05-04 18:53 37.94566 23.94825 302 ft 45 kts 126°
2026-05-04 18:53 37.94424 23.95068 302 ft 22 kts 127°
2026-05-04 18:53 37.94347 23.95194 301 ft 15 kts 127°
2026-05-04 18:53 37.94316 23.95247 303 ft 0 kts 127°
2026-05-04 18:54 37.94303 23.95269 301 ft 8 kts 127°
2026-05-04 18:54 37.94301 23.95272 301 ft 0 kts 127°
2026-05-04 18:55 37.94244 23.95254 302 ft 10 kts 218°
2026-05-04 18:55 37.94204 23.95218 301 ft 0 kts 216°